Back to catalog

DELTA 1 DEB

AliveUNKNOWN
NORAD 7016·DEBRIS·🇺🇸 United States

Launched Nov 6, 1973 from Vandenberg Space Force Base

Loading…

Next Passes (next 24 hours)

TLE

FreshSource: Space-Track

Epoch: Sep 13, 2026, 19:28 UTC

1 07016U 73086G   26256.81113449  .00000182  00000-0  37822-2 0  9995
2 07016 101.7028 353.8283 0511160 241.6167 248.2916 11.45464972209565

Track DELTA 1 DEB in real time with AllMySat

Download on the App Store